Other Public Products
Issued by NWS Charleston, SC

Current Version | Previous Version | Graphics & Text | Print | Product List | Glossary On
Versions: 1 2 3 4 5 6 7 8 9 10 11 12 13 14 15 16 17 18 19 20 21 22 23 24 25 26 27 28 29 30 31 32 33 34 35 36 37 38 39 40 41 42 43 44 45 46 47 48 49 50
997 FPUS82 KCHS 161712 OPUCHS TEST...KCHS/KSAV Gateway Observations...TEST National Weather Service Charleston SC 100 PM EDT WED AUG 16 2017 NOTE: "fair" indicates few or no clouds below 12,000 feet with no significant weather and/or obstructions to visibility. SCZ050-WAZ558-NCZ071-TXZ119-213-PAZ071-DCZ001-FLZ074-172-MI076- NYZ176-178-MAZ016-IL014-TNZ027-NJZ106-GAZ044-MD014-161800- ...Gateway Observations for Charleston International... CITY SKY/WX TMP DP RH WIND PRES REMARKS Chas Airport MOSUNNY 93 74 53 NW8 30.01F HX 103 Seattle MOSUNNY 63 51 65 SW9 30.12R Charlotte PTSUNNY 88 73 61 CALM 30.05F HX 95 Dallas DFW PTSUNNY 91 74 57 S17 29.93R HX 100 Dallas Love PTSUNNY 90 72 55 SW14G22 29.94S HX 97 Philladelphia PTSUNNY 83 67 58 S5 29.98F Wash National PTSUNNY 88 71 57 NW9 30.00F HX 94 Baltimore PTSUNNY 83 72 69 NW5 29.99F Miami CLOUDY 86 73 65 VRB6G17 30.10S THUNDER HX 93 Detroit PTSUNNY 81 57 43 VRB5 30.08F Newark PTSUNNY 82 60 47 NW10G20 29.95F Laguardia PTSUNNY 84 63 49 N9 29.95S J F K MOSUNNY 86 63 45 N9 29.96S Boston Logan MOSUNNY 83 58 42 N9G22 29.92R Ft. Lauderdale MOSUNNY 91 77 63 E12 30.08F HX 104 Chicago O`Hare MOSUNNY 84 67 56 SE6 29.98F Chicago Midway MOSUNNY 87 67 51 SE8 29.97F HX 90 Houston Bush MOSUNNY 91 75 59 S10 29.99S HX 101 Houston Hobby MOSUNNY 92 77 61 S10 29.99S HX 105 Nashville PTSUNNY 84 76 76 S7 30.07F HX 93 Atlanta MOSUNNY 88 73 61 NW9 30.09F HX 95 $$ GAZ044-118-TXZ119-213-NCZ071-DCZ001-MDZ014-506-PAZ021-071-NJZ106- NYZ176-178-MAZ106-OHZ011-021-055-MIZ076-KYZ091-ILZ014-INZ047- MNZ060-ONZ431-161800- ...Gateway Observations for Savannah International... CITY SKY/WX TMP DP RH WIND PRES REMARKS Savannah Arpt MOSUNNY 94 76 55 W8 30.03F HX 106 Atlanta MOSUNNY 88 73 61 NW9 30.09F HX 95 Charlotte PTSUNNY 88 73 61 CALM 30.05F HX 95 Dallas DFW PTSUNNY 91 74 57 S17 29.93R HX 100 Houston Bush MOSUNNY 91 75 59 S10 29.99S HX 101 Wash National PTSUNNY 88 71 57 NW9 30.00F HX 94 Wash Dulles PTSUNNY 85 72 65 MISG 30.02S HX 91 Baltimore PTSUNNY 83 72 69 NW5 29.99F Philadelphia PTSUNNY 83 67 58 S5 29.98F Newark PTSUNNY 82 60 47 NW10G20 29.95F Laguardia PTSUNNY 84 63 49 N9 29.95S J F K MOSUNNY 86 63 45 N9 29.96S Boston MOSUNNY 83 58 42 N9G22 29.92R Pittsburg MOSUNNY 82 60 47 N5 30.09S Akron MOSUNNY 83 59 44 CALM 30.09F Cleveland MOSUNNY 85 60 42 CALM 30.09F Cincinnati MOSUNNY 86 70 58 VRB6 30.04F HX 90 Columbus PTSUNNY 84 71 64 SW5 30.05S Detroit PTSUNNY 81 57 43 VRB5 30.08F Chicago O`Hare MOSUNNY 84 67 56 SE6 29.98F Minneapolis CLOUDY 71 64 78 SE13 29.88F Indianapolis CLOUDY 85 69 58 S10 30.02F Toronto Canada PTSUNNY 73 61 64 SE8 30.09F $$

USA.gov is the U.S. government's official web portal to all federal, state and local government web resources and services.